Regional Weather Roundup
Issued by NWS

Home | Current Version | Previous Version | Graphics & Text | Print | Product List | Glossary On
Versions: 1 2 3 4 5 6 7 8 9 10 11 12 13 14 15 16 17 18 19 20 21 22 23 24 25 26 27 28 29 30 31 32 33 34 35 36 37 38 39 40 41 42 43 44 45 46 47 48 49 50
000
ASUS43 KLOT 020900
RWRIL

ILLINOIS REGIONAL WEATHER ROUNDUP
NATIONAL WEATHER SERVICE CHICAGO/ROMEOVILLE IL
300 AM CST MON MAR 02 2015

NOTE: "FAIR" INDICATES FEW OR NO CLOUDS BELOW 12,000 FEET WITH NO
SIGNIFICANT WEATHER AND/OR OBSTRUCTIONS TO VISIBILITY.

* THESE STATIONS ARE NOT UNDER NWS QUALITY CONTROL. THEY ALSO MAY NOT
  REPORT WEATHER SUCH AS PRECIPITATION OR FOG.

ILZ001-002-007-009-015-016-024-021000-
NORTHWEST ILLINOIS

CITY           SKY/WX    TMP DP  RH WIND       PRES   REMARKS
MOLINE         FAIR      11   7  84 W8        30.48R WCI  -1
STERLING*      PTCLDY    10   7  85 W6        30.45S WCI   1
$$

ILZ003-004-008-010-011-017-018-021000-
NORTH CENTRAL ILLINOIS

CITY           SKY/WX    TMP DP  RH WIND       PRES   REMARKS
ROCKFORD       PTCLDY    13   6  74 W3        30.44R
$$

ILZ005-006-012>014-019>023-021000-
NORTHEAST ILLINOIS

CITY           SKY/WX    TMP DP  RH WIND       PRES   REMARKS
CHICAGO-OHARE  CLEAR     16   8  71 W12       30.41R WCI   3
CHICAGO-MIDWAY PTCLDY    19   9  65 W9        30.42R WCI   8
AURORA         PTCLDY    10   4  76 CALM      30.43S
WAUKEGAN       CLEAR     15   8  73 W6        30.39R WCI   6
DUPAGE AIRPORT CLEAR     13   6  74 W10       30.41R WCI   0
WHEELING       CLEAR     16   7  67 W6        30.42R WCI   7
NORTHERLY ISL    N/A     20  10  65 W9          N/A  WCI   9
$$

LMZ740>746-021000-
SOUTHERN LAKE MICHIGAN

STATION/POSITION SKY/WX   TEMP    WIND        PRES    VSBY  WAVE
                          AIR SEA DIR/SP/G                  HT/PER
                          (F)     (DEG/KT/KT) (MB)    (MI)  (FT/S)
WAUKEGAN HARBOR            18     280/ 10/ 18   N/A
HARRISON CRIB              20     270/ 18/ 22   N/A
BURNHAM HARBOR             20     270/  8/ 13   N/A
CALUMET HARBOR             19     260/  6/  9 1028.7R
MICHIGAN CITY              18     250/  8/  9   N/A
$$

ILZ025>027-034>036-040-047-049-050-058-095>099-021000-
WEST-CENTRAL ILLINOIS

CITY           SKY/WX    TMP DP  RH WIND       PRES   REMARKS
QUINCY         CLOUDY    22  17  81 CALM      30.49F
$$

ILZ028>032-037-038-041>044-048-051>054-059>061-021000-
CENTRAL ILLINOIS

CITY           SKY/WX    TMP DP  RH WIND       PRES   REMARKS
DECATUR        MOCLDY    21  16  81 W5        30.49R WCI  15
PEORIA         CLOUDY    21  13  71 W5        30.49S WCI  15
SPRINGFIELD    CLOUDY    17  13  84 W7        30.51R WCI   8
TAYLORVILLE    NOT AVBL
$$

ILZ033-039-045-046-055>057-062-063-021000-
EAST-CENTRAL ILLINOIS

CITY           SKY/WX    TMP DP  RH WIND       PRES   REMARKS
CHAMPAIGN      MOCLDY    13   9  84 NW8       30.46F WCI   2
MATTOON        MOCLDY    19  13  77 NW10      30.46F WCI   7
$$

ILZ079-100>102-021000-
SOUTHWEST ILLINOIS

CITY           SKY/WX    TMP DP  RH WIND       PRES   REMARKS
BELLEVILLE     MOCLDY    12  11  96 CALM      30.50F
CAHOKIA*       MOCLDY    13  10  88 CALM      30.52F FOG
$$

ILZ064>066-069>071-074>076-080>082-084>086-088>090-092>094-021000-
SOUTH-CENTRAL ILLINOIS

CITY           SKY/WX    TMP DP  RH WIND       PRES   REMARKS
CARBONDALE     PTCLDY    26  20  77 N8        30.51S WCI  18
MT. VERNON     PTCLDY    10   5  79 CALM      30.50F
$$

ILZ067-068-072-073-078-083-087-091-021000-
SOUTHEAST ILLINOIS

CITY           SKY/WX    TMP DP  RH WIND       PRES   REMARKS
LAWRENCEVILLE  PTCLDY    17  14  88 CALM      30.50S FOG
$$

ABBREVIATIONS USED IN REMARKS
   TC - TEMPERATURE IN CELSIUS
  WCI - WIND CHILL INDEX
   HX - HEAT INDEX
  VSB - VISIBILITY
$$




USA.gov is the U.S. government's official web portal to all federal, state and local government web resources and services.